CDT,Max TemperatureF,Mean TemperatureF,Min TemperatureF,Max Dew PointF,MeanDew PointF,Min DewpointF,Max Humidity, Mean Humidity, Min Humidity, Max Sea Level PressureIn, Mean Sea Level PressureIn, Min Sea Level PressureIn, Max VisibilityMiles, Mean VisibilityMiles, Min VisibilityMiles, Max Wind SpeedMPH, Mean Wind SpeedMPH, Max Gust SpeedMPH,PrecipitationIn, CloudCover, Events, WindDirDegrees
2013-4-1,88,68,48,57,44,28,73,43,16,30.22,29.95,29.64,15,11,3,14,4,,0.00,4,,86
2013-4-2,90,68,47,61,39,5,94,43,4,30.17,29.91,29.49,15,10,3,18,6,32,0.00,4,,238
2013-4-3,89,71,53,55,29,1,70,23,4,30.16,29.88,29.53,15,12,5,23,9,30,0.00,0,,243
2013-4-4,86,66,46,52,47,30,100,61,12,30.32,30.04,29.70,15,9,0,21,3,,0.00,1,Fog,78
2013-4-5,86,67,48,54,45,36,82,53,24,30.39,30.12,29.72,15,12,5,16,9,,0.00,3,,117
2013-4-6,89,64,40,54,37,16,82,38,7,30.27,29.99,29.64,15,11,5,14,5,23,0.00,2,,224
2013-4-7,91,74,57,55,32,9,82,29,6,30.20,29.91,29.56,15,11,3,16,6,29,0.00,3,,244
2013-4-8,86,74,61,53,30,9,68,22,6,30.16,29.85,29.46,15,11,3,21,7,30,0.00,3,,250
2013-4-9,89,74,58,48,28,16,39,18,8,30.13,29.85,29.49,15,12,5,23,8,,0.00,3,,260
2013-4-10,86,70,53,56,26,3,77,20,6,30.12,29.84,29.52,15,11,5,18,7,22,0.00,6,,225
2013-4-11,89,70,50,45,24,1,48,19,6,30.10,29.82,29.43,15,12,5,18,8,34,0.00,4,,248
2013-4-12,87,63,39,53,38,9,100,55,6,30.12,29.89,29.55,15,9,0,24,4,,0.00,2,Fog,50
2013-4-13,85,62,39,50,30,-4,100,47,4,30.07,29.89,29.53,15,9,0,23,4,29,0.00,0,Fog,238
2013-4-14,91,70,48,47,18,1,41,15,4,30.10,29.85,29.54,15,12,3,17,7,,0.00,0,,244
2013-4-15,92,71,50,51,21,3,36,15,4,30.14,29.89,29.54,15,12,3,14,5,25,0.00,4,,212
2013-4-16,95,76,57,48,29,14,43,19,9,30.18,29.91,29.53,15,12,5,9,3,,0.00,4,,148
2013-4-17,96,72,48,48,32,5,87,28,6,30.19,29.91,29.52,15,12,5,17,5,24,0.00,4,,263
2013-4-18,96,74,52,59,30,10,65,19,5,30.12,29.83,29.46,15,12,5,18,4,30,0.00,2,,252
2013-4-19,75,62,46,57,43,25,82,49,20,30.30,29.97,29.57,12,8,5,26,10,28,0.00,3,,112
2013-4-20,82,56,31,46,31,25,86,41,14,30.28,30.10,29.79,15,9,5,17,3,,0.00,1,,35
2013-4-21,93,65,37,52,31,9,87,34,6,30.25,30.01,29.64,15,11,3,14,4,23,0.00,1,,269
2013-4-22,92,66,40,68,41,9,96,45,6,30.27,29.99,29.20,15,11,3,17,3,23,0.00,0,,55
2013-4-23,91,68,44,52,38,14,100,45,6,30.19,29.94,29.57,12,8,1,17,4,43,0.00,5,,253
2013-4-24,91,72,53,59,33,12,84,29,10,30.28,29.97,29.62,15,11,5,21,4,24,0.00,4,,134
2013-4-25,81,68,55,59,53,37,94,62,23,30.36,30.11,29.78,12,8,5,18,7,23,0.00,6,,109
2013-4-26,89,70,50,55,46,28,94,51,13,30.36,30.11,29.71,15,9,5,15,6,24,3.05,5,Rain-Thunderstorm,74
2013-4-27,86,66,46,54,43,28,88,44,13,30.31,30.03,29.63,15,10,5,15,4,,0.00,4,,308
2013-4-28,90,70,51,59,50,27,100,55,14,30.17,29.89,29.50,15,10,3,9,5,,0.00,4,,106
2013-4-29,86,67,48,59,41,3,100,50,6,30.10,29.86,29.50,15,9,3,14,4,,0.00,3,,168
2013-4-30,90,69,48,54,31,3,100,40,4,30.12,29.88,29.54,15,10,3,14,3,,0.00,1,,237